Content
SEND FEEDBACK

Daily
Averages
Monthly
Summary
United States of America

CLARKSVILLE, TEXAS


Home > North America > United States > Texas
Elevation: 432 feet     Latitude: 33 38N     Longitude: 095 02W

WEATHER
 
SELECT A DAY
Number of Records: 269,206;   Date Range: 7/10/03 - 7/20/14
 
SHARE

PRINT THIS DATA

[ ← Previous Day ]
WEATHER ALMANAC - JANUARY 31, 2013
[ Next Day → ]
[ °C ]   °F
Weather ElementAverageHighLow
Temperature47.1 °F66.2 °F (3:35 pm)32 °F (1:55 am)
Dewpoint24.3 °F30.2 °F (9:35 pm)14 °F (3:15 pm)
Humidity48.1 %87 % (1:55 am)14 % (3:15 pm)
Barometer30.17 in30.33 in (11:15 pm)30.11 in (12:55 am)
Wind Speed5.1 mph13.8 mph (8:35 pm)
Wind Gust23 mph (10:15 pm)
Weather ElementAverage
Visibility10 mi
Wind DirectionSSE (153 °)

Weather ElementTotal
Precipitation---
Heating Degree Days15.9 (Base 65)
Averaged from 69 records on January 31, 2013
WEATHER CONDITIONS BREAKOUT
WIND DIRECTION BREAKOUT
WEATHER BY HOUR - JANUARY 31, 2013
[ °C ]   °F
Local TimeTemperatureDewpointHumidityBarometerVisibilityWind DirectionWind SpeedGust SpeedPrecipitationEventsConditions
12:35 AM33.8 °F26.6 °F75 %30.12 in10.0 miCalmClear
12:55 AM33.8 °F26.6 °F75 %30.11 in10.0 miCalmClear
1:15 AM33.8 °F26.6 °F75 %30.11 in10.0 miCalmClear
1:35 AM33.8 °F26.6 °F75 %30.11 in10.0 miCalmClear
1:55 AM32.0 °F28.4 °F87 %30.11 in10.0 miCalmClear
2:15 AM32.0 °F28.4 °F87 %30.12 in10.0 miCalmClear
2:35 AM32.0 °F26.6 °F80 %30.11 in10.0 miCalmClear
2:55 AM32.0 °F28.4 °F87 %30.13 in10.0 miCalmClear
3:15 AM32.0 °F26.6 °F80 %30.13 in10.0 miCalmClear
3:35 AM32.0 °F26.6 °F80 %30.13 in10.0 miCalmClear
3:55 AM32.0 °F26.6 °F80 %30.12 in10.0 miCalmClear
4:15 AM32.0 °F26.6 °F80 %30.12 in10.0 miCalmClear
4:35 AM33.8 °F26.6 °F75 %30.13 in10.0 miSSW (200°)3.5 mphClear
4:55 AM33.8 °F26.6 °F75 %30.13 in10.0 miCalmClear
5:15 AM33.8 °F26.6 °F75 %30.13 in10.0 miCalmClear
5:35 AM33.8 °F26.6 °F75 %30.14 in10.0 miCalmClear
5:55 AM33.8 °F26.6 °F75 %30.14 in10.0 miCalmClear
6:15 AM33.8 °F26.6 °F75 %30.14 in10.0 miSouth (190°)3.5 mphClear
6:35 AM33.8 °F26.6 °F75 %30.15 in10.0 miCalmClear
6:55 AM33.8 °F26.6 °F75 %30.14 in10.0 miSSW (200°)3.5 mphClear
7:15 AM32.0 °F26.6 °F80 %30.15 in10.0 miCalmClear
7:35 AM33.8 °F26.6 °F75 %30.16 in10.0 miCalmClear
7:55 AM35.6 °F26.6 °F70 %30.16 in10.0 miCalmClear
8:15 AM37.4 °F26.6 °F65 %30.17 in10.0 miCalmClear
8:35 AM39.2 °F28.4 °F65 %30.18 in10.0 miCalmClear
8:55 AM42.8 °F28.4 °F57 %30.18 in10.0 miSW (230°)3.5 mphClear
9:15 AM44.6 °F26.6 °F49 %30.17 in10.0 miSW (230°)4.6 mphClear
9:35 AM46.4 °F28.4 °F50 %30.19 in10.0 miSW (220°)3.5 mphClear
9:55 AM50.0 °F26.6 °F40 %30.19 in10.0 miSW (230°)5.8 mphClear
10:15 AM50.0 °F28.4 °F43 %30.19 in10.0 miSouth (170°)5.8 mphClear
10:35 AM51.8 °F26.6 °F38 %30.19 in10.0 miSSW (210°)6.9 mphClear
10:55 AM51.8 °F26.6 °F38 %30.19 in10.0 miSouth (190°)6.9 mphClear
11:15 AM53.6 °F26.6 °F35 %30.20 in10.0 miSSW (200°)5.8 mphClear
11:35 AM55.4 °F26.6 °F33 %30.20 in10.0 miSSW (200°)5.8 mphClear
11:55 AM57.2 °F24.8 °F29 %30.19 in10.0 miSSW (200°)6.9 mphClear
12:15 PM59.0 °F23.0 °F25 %30.19 in10.0 miSSW (210°)9.2 mph16.1 mphClear
12:35 PM59.0 °F23.0 °F25 %30.17 in10.0 miSSW (200°)10.4 mphClear
12:55 PM60.8 °F21.2 °F22 %30.17 in10.0 miSW (220°)5.8 mph17.3 mphClear
1:15 PM60.8 °F21.2 °F22 %30.16 in10.0 miSW (220°)8.1 mphClear
1:35 PM62.6 °F17.6 °F18 %30.14 in7.0 miSSW (210°)12.7 mph17.3 mphClear
1:55 PM62.6 °F17.6 °F18 %30.13 in10.0 miSSW (200°)12.7 mph17.3 mphClear
2:15 PM62.6 °F15.8 °F16 %30.13 in10.0 miSW (220°)10.4 mph17.3 mphClear
2:35 PM64.4 °F15.8 °F15 %30.13 in10.0 miSW (220°)10.4 mph18.4 mphClear
3:15 PM64.4 °F14.0 °F14 %30.11 in10.0 miSW (220°)9.2 mph17.3 mphClear
3:35 PM66.2 °F15.8 °F14 %30.11 in10.0 miSSW (210°)8.1 mph17.3 mphClear
3:55 PM64.4 °F15.8 °F15 %30.11 in10.0 miSW (220°)11.5 mph16.1 mphClear
4:15 PM64.4 °F14.0 °F14 %30.11 in10.0 miSSW (210°)8.1 mph18.4 mphClear
4:35 PM64.4 °F14.0 °F14 %30.11 in10.0 miSW (220°)8.1 mph16.1 mphClear
4:55 PM64.4 °F17.6 °F16 %30.11 in10.0 miSSW (210°)11.5 mph17.3 mphClear
5:15 PM62.6 °F17.6 °F18 %30.11 in10.0 miSSW (200°)4.6 mphClear
5:35 PM60.8 °F19.4 °F20 %30.13 in10.0 miSSW (210°)5.8 mphClear
5:55 PM60.8 °F19.4 °F20 %30.14 in10.0 miSSW (210°)4.6 mphClear
6:15 PM59.0 °F21.2 °F23 %30.15 in10.0 miSSW (210°)3.5 mphClear
6:35 PM59.0 °F21.2 °F23 %30.16 in10.0 miSSW (200°)3.5 mphClear
6:55 PM55.4 °F21.2 °F26 %30.17 in10.0 miCalmClear
7:15 PM53.6 °F21.2 °F28 %30.18 in10.0 miCalmClear
7:35 PM50.0 °F23.0 °F35 %30.19 in10.0 miCalmClear
7:55 PM51.8 °F23.0 °F33 %30.19 in10.0 miSW (220°)4.6 mphClear
8:15 PM55.4 °F23.0 °F29 %30.20 in10.0 miSW (220°)6.9 mphClear
8:35 PM51.8 °F26.6 °F38 %30.24 in10.0 miNorth (350°)13.8 mph21.9 mphClear
8:55 PM50.0 °F28.4 °F43 %30.26 in10.0 miNNW (340°)9.2 mph16.1 mphClear
9:15 PM50.0 °F28.4 °F43 %30.27 in10.0 miNorth (350°)11.5 mphClear
9:35 PM46.4 °F30.2 °F53 %30.28 in10.0 miNNW (340°)9.2 mphClear
9:55 PM46.4 °F28.4 °F50 %30.29 in10.0 miNNW (340°)11.5 mph17.3 mphClear
10:15 PM44.6 °F28.4 °F53 %30.30 in10.0 miNNW (340°)13.8 mph23.0 mphClear
10:35 PM44.6 °F26.6 °F49 %30.30 in10.0 miNNW (340°)13.8 mph21.9 mphClear
11:15 PM42.8 °F26.6 °F53 %30.33 in10.0 miNNW (340°)12.7 mph19.6 mphClear
11:35 PM42.8 °F26.6 °F53 %30.33 in10.0 miNNW (340°)9.2 mph17.3 mphClear
11:55 PM41.0 °F24.8 °F53 %30.32 in10.0 miNorth (350°)10.4 mphClear
Hourly data recorded from KLBR, located miles away from Clarksville, Texas







STORIES FROM OUR PARTNERS